Regional Weather Roundup
Issued by NWS

Home | Current Version | Previous Version | Graphics & Text | Print | Product List | Glossary On
Versions: 1 2 3 4 5 6 7 8 9 10 11 12 13 14 15 16 17 18 19 20 21 22 23 24 25 26 27 28 29 30 31 32 33 34 35 36 37 38 39 40 41 42 43 44 45 46 47 48 49 50
000
ASUS45 KBOU 201507
RWRCO

WEATHER ROUNDUP FOR COLORADO
NATIONAL WEATHER SERVICE DENVER/BOULDER CO
800 AM MST SAT DEC 20 2014

NOTE: "FAIR" INDICATES FEW OR NO CLOUDS BELOW 12000 FEET WITH NO
SIGNIFICANT WEATHER AND/OR OBSTRUCTIONS TO VISIBILITY.

COZ001>005-013-030-031-201600-
...NORTHWEST COLORADO...

CITY           SKY/WX    TMP DP  RH WIND       PRES   REMARKS
CRAIG          CLOUDY    22  18  85 CALM      30.14F
HAYDEN         MOCLDY    21  16  79 E6        30.13S WCI  14
MEEKER         CLOUDY    23  17  78 CALM      30.14F
MOUNT WERNER   NOT AVBL
STEAMBOAT SPGS CLOUDY    18  16  91 SE6       30.13F WCI  10
WALDEN         CLOUDY    21  14  73 S8        30.07R WCI  12
$$

COZ006>008-011-201600-
...WEST CENTRAL VALLEYS...

CITY           SKY/WX    TMP DP  RH WIND       PRES   REMARKS
GRAND JUNCTION CLOUDY    29  23  78 SE6       30.18F WCI  23
MONTROSE       CLOUDY    26  18  71 S9        30.20F WCI  17
EAGLE          MOCLDY    16  14  93 CALM      30.21S
RIFLE          CLOUDY    26  21  81 CALM      30.20S
DELTA          CLOUDY    29  22  74 NE7       30.21F WCI  22
NUCLA          CLOUDY    27  21  80 CALM      30.21S
$$

COZ017>023-064>068-201600-
...SOUTHWEST COLORADO...

CITY           SKY/WX    TMP DP  RH WIND       PRES   REMARKS
DURANGO        CLOUDY    24  21  88 CALM      30.18R
CORTEZ         CLEAR     21  18  88 W5        30.18F WCI  15
PAGOSA SPRINGS MOCLDY    17  16  95 CALM      30.16F
TELLURIDE      CLOUDY    20  15  78 E6        30.17R WCI  13
WOLF CREEK PAS CLOUDY    19  10  68 MISG      30.14S
$$

COZ009-010-012-014-032>034-037-058>063-201600-
...CENTRAL COLORADO...

CITY           SKY/WX    TMP DP  RH WIND       PRES   REMARKS
ASPEN          MOCLDY    16  11  80 S3        30.13S
BUENA VISTA    PTCLDY    12   7  81 W3        30.11S
COPPER MTN     MOCLDY    19  14  79 S7G20     30.09S WCI  10
BERTHOUD PASS  CLOUDY    12   7  79 MISG      30.01F
COTTONWOOD PAS PTCLDY    28  14  54 CALM      30.09S
GUNNISON       MOCLDY     3  -2  78 CALM      30.24S
KREMMLING      MOCLDY    10   7  85 CALM      30.17S
LEADVILLE      CLOUDY    17  10  74 N7        30.08F WCI   8
SALIDA         PTCLDY    21  10  63 CALM      30.19S
SUNLIGHT       LGT SNOW N/A N/A N/A CALM      30.13S
WILKERSON PASS CLOUDY    21  12  68 W9G18     30.10R WCI  11
$$

COZ069>075-201600-
...SAN LUIS VALLEY/SANGRE DE CRISTO MOUNTAINS...

CITY           SKY/WX    TMP DP  RH WIND       PRES   REMARKS
ALAMOSA        CLOUDY    10   6  84 NE3       30.16S
LA VETA PASS   PTCLDY    18  10  73 MISG      30.09S
SAGUACHE       CLOUDY    19  10  68 E5        30.16S WCI  13
$$

COZ035-036-038>040-201600-
...NORTHERN COLORADO FRONT RANGE...

CITY           SKY/WX    TMP DP  RH WIND       PRES   REMARKS
DENVER INTL AP CLOUDY    37  17  44 SW9       29.97S
DMNS CITY PARK   N/A     35  16  45 S3        29.98S
AURORA         MOCLDY    35  18  49 S10       29.99S WCI  27
FRONT RANGE AP NOT AVBL
ERIE MUNI ARPT   N/A     25  20  83 CALM      29.98S
BOULDER MUN AP CLOUDY    30  19  64 CALM      29.98R
CENTENNIAL     CLOUDY    38  19  46 SW10      29.98S
BROOMFIELD     MOCLDY    36  18  48 CALM      29.97F
FORT COLLINS   CLOUDY    27  19  74 SE6       29.99F WCI  20
LONGMONT       CLOUDY    28  22  77 NW6       30.00S WCI  22
$$

COZ041-046-047-076>085-087-088-201600-
...PIKES PEAK/PALMER DIVIDE AND SOUTHERN FOOTHILLS...

CITY           SKY/WX    TMP DP  RH WIND       PRES   REMARKS
COLO. SPRINGS  CLOUDY    28  17  63 N6        30.03S WCI  22
A. F. ACADEMY  CLOUDY    22  15  72 N7        30.02F WCI  14
ELLICOTT       NOT AVBL
FALCON         CLOUDY    29  16  57 NW7       30.04S WCI  22
FORT CARSON    CLOUDY    28  18  66 NW15      30.02R WCI  16
LIMON          PTCLDY    20  15  81 CALM      30.02R
MONUMENT HILL  MOCLDY    28  16  59 S8        30.01S WCI  20
TRINIDAD       MOCLDY    28  14  55 SW9       30.04F WCI  19
$$

COZ042>045-048>051-090-091-201600-
...NORTHEAST COLORADO...

CITY           SKY/WX    TMP DP  RH WIND       PRES   REMARKS
GREELEY ARPT   CLOUDY    21  12  68 E3        30.00R
AKRON          CLOUDY    27  19  72 W8        30.00S WCI  19
BURLINGTON     PTCLDY    32  24  72 W10       30.01F WCI  24
WRAY           CLEAR     22  18  84 W7        30.02S WCI  14
STERLING       CLOUDY    19  18  93 S6        30.02S WCI  11
HOLYOKE        CLEAR     25  19  80 W9        30.01S WCI  15
FORT MORGAN    CLOUDY    20  17  85 W5        30.03R WCI  14
$$

COZ086-089-092>099-201600-
...SOUTHEAST COLORADO...

CITY           SKY/WX    TMP DP  RH WIND       PRES   REMARKS
PUEBLO         MOCLDY    22  17  81 CALM      30.04F
LA JUNTA       PTCLDY    26  20  77 W7        30.04F WCI  18
LAMAR          PTCLDY    24  22  91 W7        30.05S WCI  16
SPRINGFIELD      N/A     31  24  75 W5        30.04S WCI  26
$$


USA.gov is the U.S. government's official web portal to all federal, state and local government web resources and services.